Location: Unspecified
(0.0000°N, 0.0000°E)
Time: 19:53:21
(UTC+00:00)

Hubble Space Telescope - Pass Details

Date: 20 June 2019
Orbit: 536 x 540 km, 28.5° (Epoch: 26 June)

Event Time Altitude Azimuth Distance (km) Brightness Sun altitude
Rises 20:23:27 0° 262° (W) 2,676 5.1 -32.2°
Reaches altitude 10° 20:26:03 10° 276° (W) 1,784 4.1 -32.7°
Enters shadow 20:27:48 19° 297° (WNW) 1,316 3.4 -33.1°
